(2011 CL50) |
Classification: Aten [NEO] SPK-ID: 3557536 |
[ hide orbit diagram ]
For accurate long-term ephemerides, please instead use our Horizons system.This orbit viewer was implemented using two-body methods, and hence should not be used for determining accurate long-term trajectories (over several years or decades) or planetary encounter circumstances.
Orbital Elements at Epoch 2459000.5 (2020-May-31.0) TDB
Reference: JPL 24 (heliocentric ecliptic J2000)
Element | Value | Uncertainty (1-sigma) | Units |
e | .1446341520506107 | 4.4733e-08 | |
a | .885761506454807 | 9.9228e-09 | au |
q | .7576501420496444 | 4.0779e-08 | au |
i | .1869999448784539 | 4.503e-07 | deg |
node | 10.38390144437031 | 0.0009341 | deg |
peri | 295.0830856064202 | 0.00093125 | deg |
M | 253.3548309855366 | 3.4504e-05 | deg |
tp | 2459090.701200373080 (2020-Aug-29.20120037) | 2.9046e-05 | TDB |
period | 304.4904184070896 0.83 | 5.1166e-06 1.401e-08 | d yr |
n | 1.18230321296579 | 1.9867e-08 | deg/d |
Q | 1.01387287085997 | 1.1358e-08 | au |
|
Additional Model Parameters
Parameter | Value | Uncertainty (1-sigma) |
A2 [EST] | 4.36257230382443E-12 | 3.548E-13 |
ALN [SET] | 1. | n/a |
NK [SET] | 0. | n/a |
NM [SET] | 2. | n/a |
R0 [SET] | 1. | n/a |
|
| | Orbit Determination Parameters
Additional Information
|
[ show covariance matrix ]
Physical Parameter Table
Parameter |
Symbol |
Value |
Units |
Sigma |
Reference |
Notes |
absolute magnitude |
H |
27.6 |
|
n/a |
MPO194139 |
|
|
[ show close-approach data ]
|